Weather History for KJWG - February, 2014

Change the Weather History Date:

Sunday, February 16, 2014

  Actual Average Record
Temperature  
Mean Temperature 48 °F -  
Max Temperature 66 °F 49 °F 76 °F (1959)
Min Temperature 30 °F 28 °F 6 °F (2007)
Degree Days  
Heating Degree Days 17    
Moisture  
Dew Point 40 °F    
Average Humidity 76    
Maximum Humidity 100    
Minimum Humidity 38    
Precipitation  
Precipitation 0.00 in - - ()
Sea Level Pressure  
Sea Level Pressure 29.96 in    
Wind  
Wind Speed 6 mph (ESE)    
Max Wind Speed 16 mph    
Max Gust Speed 24 mph    
Visibility 10 miles    
Events      
Averages and records for this station are not official NWS values.
T = Trace of Precipitation, MM = Missing Value Source: NWS Daily Summary

Daily Weather History Graph

Daily Weather History Graph

Search for Another Location

Airport or City:

Trip Planner

Search our weather history database for the weather conditions in past years. The results will help you decide how hot, cold, wet, or windy it might be!

Date:

Astronomy

Feb. 16, 2014 Rise Set
Actual Time 7:19 AM CST 6:16 PM CST
Civil Twilight 6:53 AM CST 6:42 PM CST
Nautical Twilight 6:23 AM CST 7:12 PM CST
Astronomical Twilight 5:53 AM CST 7:42 PM CST
Moon 8:09 PM CST (2/16) 7:54 AM CST (2/16)
Length of Visible Light 11h 49m
Length of Day
10h 56m
Full, 97% of the Moon is Illuminated
Feb 16
Full
Feb 22
Last Quarter
Mar 1
New
Mar 8
First Quarter
Mar 16
Full

Hourly Weather History & Observations

Time (CST) Temp. Windchill Dew Point Humidity Pressure Visibility Wind Dir Wind Speed Gust Speed Precip Events Conditions
12:15 AM 37.2 °F 33.6 °F 34.3 °F 89% 30.10 in 10.0 mi North 4.6 mph - N/A   Clear
12:35 AM 36.7 °F 31.2 °F 34.9 °F 93% 30.11 in 10.0 mi NNE 6.9 mph - N/A   Clear
12:55 AM 40.1 °F 34.1 °F 35.8 °F 85% 30.11 in 10.0 mi NNE 9.2 mph - N/A   Clear
1:15 AM 38.8 °F - 34.9 °F 86% 30.11 in 10.0 mi Calm Calm - N/A   Clear
1:35 AM 35.2 °F - 33.3 °F 92% 30.11 in 10.0 mi Calm Calm - N/A   Clear
1:55 AM 35.2 °F 31.2 °F 33.8 °F 94% 30.11 in 10.0 mi North 4.6 mph - N/A   Clear
2:15 AM 34.2 °F 30.0 °F 34.2 °F 100% 30.10 in 10.0 mi North 4.6 mph - N/A   Clear
2:35 AM 35.1 °F - 34.5 °F 98% 30.11 in 10.0 mi Calm Calm - N/A   Clear
2:55 AM 32.7 °F - 32.7 °F 100% 30.10 in 10.0 mi Calm Calm - N/A   Clear
3:15 AM 32.7 °F - 32.7 °F 100% 30.10 in 10.0 mi Calm Calm - N/A   Clear
3:35 AM 33.1 °F - 33.1 °F 100% 30.10 in 10.0 mi Calm Calm - N/A   Clear
3:55 AM 33.3 °F - 33.3 °F 100% 30.09 in 10.0 mi Calm Calm - N/A   Clear
4:15 AM 32.7 °F - 32.7 °F 100% 30.09 in 10.0 mi Calm Calm - N/A   Clear
4:35 AM 33.4 °F 30.4 °F 33.4 °F 100% 30.07 in 10.0 mi NNE 3.5 mph - N/A   Clear
4:55 AM 36.5 °F 29.7 °F 35.4 °F 96% 30.07 in 10.0 mi NNE 9.2 mph - N/A   Clear
5:15 AM 37.8 °F 31.3 °F 34.7 °F 89% 30.06 in 10.0 mi NNE 9.2 mph - N/A   Clear
5:35 AM 36.1 °F 32.3 °F 33.4 °F 90% 30.04 in 10.0 mi NE 4.6 mph - N/A   Clear
5:55 AM 36.5 °F - 33.8 °F 90% 30.04 in 10.0 mi Calm Calm - N/A   Clear
6:15 AM 32.5 °F - 31.1 °F 94% 30.05 in 10.0 mi Calm Calm - N/A   Clear
6:35 AM 31.5 °F 28.1 °F 31.5 °F 100% 30.04 in 10.0 mi NE 3.5 mph - N/A   Clear
6:55 AM 32.7 °F - 32.5 °F 99% 30.05 in 10.0 mi Calm Calm - N/A   Clear
7:15 AM 30.7 °F - 30.7 °F 100% 30.05 in 10.0 mi Calm Calm - N/A   Clear
7:35 AM 30.2 °F - 30.2 °F 100% 30.05 in 10.0 mi Calm Calm - N/A   Clear
7:55 AM 33.1 °F 30.0 °F 33.1 °F 100% 30.05 in 10.0 mi NNE 3.5 mph - N/A   Clear
8:15 AM 35.6 °F 32.8 °F 35.6 °F 100% 30.06 in 10.0 mi NNE 3.5 mph - N/A   Clear
8:35 AM 41.4 °F 37.6 °F 37.4 °F 86% 30.06 in 10.0 mi NE 5.8 mph - N/A   Clear
8:55 AM 43.5 °F 38.9 °F 38.1 °F 81% 30.06 in 10.0 mi NE 8.1 mph - N/A   Clear
9:15 AM 44.1 °F 39.0 °F 37.9 °F 79% 30.07 in 10.0 mi NNE 9.2 mph - N/A   Clear
9:35 AM 45.7 °F 41.0 °F 37.4 °F 73% 30.07 in 10.0 mi ENE 9.2 mph - N/A   Clear
9:55 AM 47.1 °F - 37.0 °F 68% 30.06 in 10.0 mi East 10.4 mph - N/A   Clear
10:15 AM 47.3 °F - 36.9 °F 67% 30.06 in 10.0 mi East 12.7 mph - N/A   Clear
10:35 AM 50.0 °F - 37.0 °F 61% 30.06 in 10.0 mi East 11.5 mph - N/A   Clear
10:55 AM 51.6 °F - 36.7 °F 57% 30.06 in 10.0 mi ESE 13.8 mph 19.6 mph N/A   Clear
11:15 AM 52.7 °F - 36.0 °F 53% 30.06 in 10.0 mi ESE 12.7 mph 17.3 mph N/A   Clear
11:35 AM 53.6 °F - 36.7 °F 53% 30.06 in 10.0 mi East 9.2 mph 18.4 mph N/A   Clear
11:55 AM 54.3 °F - 37.6 °F 53% 30.03 in 10.0 mi East 11.5 mph - N/A   Clear
12:15 PM 56.3 °F - 36.9 °F 48% 30.02 in 10.0 mi East 11.5 mph 17.3 mph N/A   Clear
12:35 PM 57.6 °F - 36.7 °F 46% 30.01 in 10.0 mi ESE 9.2 mph - N/A   Clear
12:55 PM 59.0 °F - 36.9 °F 44% 29.99 in 10.0 mi East 12.7 mph 16.1 mph N/A   Clear
1:15 PM 60.1 °F - 36.7 °F 42% 29.96 in 10.0 mi ESE 11.5 mph - N/A   Clear
1:35 PM 61.7 °F - 36.5 °F 39% 29.94 in 10.0 mi ESE 11.5 mph 16.1 mph N/A   Clear
1:55 PM 63.0 °F - 36.9 °F 38% 29.92 in 10.0 mi ESE 12.7 mph 19.6 mph N/A   Clear
2:15 PM 64.4 °F - 37.9 °F 38% 29.90 in 10.0 mi SE 16.1 mph - N/A   Clear
2:35 PM 64.9 °F - 38.5 °F 38% 29.91 in 10.0 mi SE 16.1 mph 24.2 mph N/A   Clear
2:55 PM 64.4 °F - 39.0 °F 39% 29.90 in 10.0 mi ESE 11.5 mph 20.7 mph N/A   Clear
3:15 PM 65.3 °F - 39.9 °F 39% 29.88 in 10.0 mi SE 11.5 mph 17.3 mph N/A   Clear
3:35 PM 65.7 °F - 40.8 °F 40% 29.86 in 10.0 mi ESE 13.8 mph 18.4 mph N/A   Clear
3:55 PM 66.2 °F - 41.2 °F 40% 29.86 in 10.0 mi SE 10.4 mph 16.1 mph N/A   Clear
4:15 PM 65.3 °F - 41.7 °F 42% 29.85 in 10.0 mi ESE 9.2 mph 16.1 mph N/A   Clear
4:35 PM 65.3 °F - 43.9 °F 46% 29.86 in 10.0 mi SE 10.4 mph - N/A   Clear
4:55 PM 64.9 °F - 45.0 °F 48% 29.85 in 10.0 mi SSE 9.2 mph - N/A   Clear
5:15 PM 64.6 °F - 45.7 °F 50% 29.84 in 10.0 mi SE 9.2 mph - N/A   Clear
5:35 PM 64.2 °F - 46.6 °F 53% 29.84 in 10.0 mi SE 6.9 mph - N/A   Clear
5:55 PM 63.1 °F - 47.1 °F 56% 29.85 in 10.0 mi South 10.4 mph - N/A   Clear
6:15 PM 61.9 °F - 47.3 °F 59% 29.85 in 10.0 mi South 9.2 mph - N/A   Clear
6:35 PM 60.1 °F - 46.8 °F 61% 29.84 in 10.0 mi SSE 5.8 mph - N/A   Clear
6:55 PM 59.0 °F - 46.6 °F 63% 29.85 in 10.0 mi SE 8.1 mph - N/A   Clear
7:15 PM 59.0 °F - 48.4 °F 68% 29.84 in 10.0 mi SSE 10.4 mph - N/A   Clear
7:35 PM 58.3 °F - 49.3 °F 72% 29.84 in 10.0 mi SE 10.4 mph - N/A   Clear
7:55 PM 54.7 °F - 50.2 °F 85% 29.83 in 10.0 mi SE 10.4 mph - N/A   Clear
8:15 PM 53.6 °F - 50.9 °F 91% 29.83 in 10.0 mi SE 8.1 mph - N/A   Clear
8:35 PM 52.7 °F - 50.5 °F 92% 29.82 in 10.0 mi SSE 6.9 mph - N/A   Clear
8:55 PM 52.9 °F - 50.9 °F 93% 29.81 in 10.0 mi SSE 6.9 mph - N/A   Clear
9:15 PM 52.2 °F - 50.7 °F 95% 29.80 in 10.0 mi SSE 6.9 mph - N/A   Clear
9:35 PM 52.9 °F - 52.3 °F 98% 29.80 in 10.0 mi SSE 8.1 mph - N/A   Clear
9:55 PM 52.3 °F - 52.3 °F 100% 29.78 in 7.0 mi SSE 6.9 mph - N/A   Clear
10:15 PM 51.3 °F - 51.3 °F 100% 29.78 in 7.0 mi SE 4.6 mph - N/A   Clear
10:35 PM 51.3 °F - 51.3 °F 100% 29.78 in 5.0 mi SE 3.5 mph - N/A   Clear
10:55 PM 49.8 °F - 49.8 °F 100% 29.76 in 5.0 mi SSE 4.6 mph - N/A   Clear
11:15 PM 50.2 °F - 50.2 °F 100% 29.75 in 4.0 mi SE 5.8 mph - N/A   Clear
11:35 PM 50.0 °F - 50.0 °F 100% 29.74 in 4.0 mi SSE 4.6 mph - N/A   Clear
11:55 PM 50.4 °F - 50.4 °F 100% 29.74 in 4.0 mi SSE 8.1 mph - N/A   Clear